GW4477 Weather Reports


time (UTC)temp
F
wind
direction
speed
knots
gust
knots
rain 1hr
in
rain 24hr
in
rain mn
in
humidity
%
barometer
mb
20260505070022 55 41 6.1 12.2 0.00 0.00 0.00 49 1006.8
20260505064524 56 341 5.2 13.0 0.00 0.00 0.00 50 1006.7
20260505063028 57 11 6.1 13.0 0.00 0.00 0.00 50 1006.4
20260505061523 57 17 7.0 11.3 0.00 0.00 0.00 50 1006.4
20260505060023 58 91 5.2 13.9 0.00 0.00 0.00 51 1006.3
20260505054506 58 57 4.3 16.5 0.00 0.00 0.00 52 1006.2
20260505053014 59 74 4.3 10.4 0.00 0.00 0.00 54 1005.9
20260505051533 59 10 4.3 11.3 0.00 0.00 0.00 56 1006.0
20260505041511 64 9 5.2 12.2 0.00 0.00 0.00 48 1004.9
20260505040016 66 5 5.2 14.8 0.00 0.00 0.00 44 1004.5
20260505034519 67 344 6.1 9.6 0.00 0.00 0.00 39 1004.5
20260505033008 66 32 3.5 7.0 0.00 0.00 0.00 40 1004.3
20260505031510 67 130 3.5 7.8 0.00 0.00 0.00 39 1003.4
20260505030016 68 136 4.3 7.8 0.00 0.00 0.00 36 1003.1
20260505024518 69 140 4.3 7.0 0.00 0.00 0.00 34 1002.9
20260505023011 69 94 1.7 5.2 0.00 0.00 0.00 34 1002.5
20260505021510 70 144 3.5 6.1 0.00 0.00 0.00 32 1002.3
20260505020015 71 121 1.7 3.5 0.00 0.00 0.00 30 1002.3
20260505014527 72 132 0.9 5.2 0.00 0.00 0.00 29 1002.4
20260505013028 74 111 0.9 3.5 0.00 0.00 0.00 28 1002.2
20260505011509 75 94 0.9 5.2 0.00 0.00 0.00 26 1002.2
20260505010019 77 118 4.3 7.0 0.00 0.00 0.00 25 1002.2
20260505004516 78 81 0.9 3.5 0.00 0.00 0.00 24 1002.2
20260505003021 79 35 0.9 4.3 0.00 0.00 0.00 23 1002.3
20260505001524 80 87 1.7 5.2 0.00 0.00 0.00 22 1002.2
20260505000008 80 5 1.7 5.2 0.00 0.00 0.00 21 1002.5
20260504234514 80 81 0.9 4.3 0.00 0.00 0.00 21 1002.4
20260504233003 80 46 1.7 6.1 0.00 0.00 0.00 21 1002.4
20260504231505 81 121 2.6 7.8 0.00 0.00 0.00 20 1002.5
20260504230005 81 213 2.6 7.8 0.00 0.00 0.00 20 1002.7
20260504224506 81 26 3.5 11.3 0.00 0.00 0.00 20 1002.8
20260504223003 81 101 0.9 7.0 0.00 0.00 0.00 20 1003.0
20260504221509 82 352 3.5 7.8 0.00 0.00 0.00 20 1002.9
20260504220008 83 128 7.0 11.3 0.00 0.00 0.00 20 1002.9
20260504214509 82 88 2.6 7.0 0.00 0.00 0.00 21 1003.1
20260504213008 82 128 3.5 9.6 0.00 0.00 0.00 22 1003.0
20260504211503 82 100 7.0 12.2 0.00 0.00 0.00 22 1003.0
20260504210006 83 139 6.1 9.6 0.00 0.00 0.00 21 1003.2
20260504204511 83 166 1.7 5.2 0.00 0.00 0.00 17 1003.5
20260504203012 84 197 1.7 5.2 0.00 0.00 0.00 16 1003.5
20260504201512 84 234 1.7 5.2 0.00 0.00 0.00 17 1003.7
20260504200003 86 188 2.6 5.2 0.00 0.00 0.00 15 1003.8
20260504194510 85 113 3.5 7.8 0.00 0.00 0.00 14 1004.0
20260504193015 85 180 2.6 6.1 0.00 0.00 0.00 16 1004.2
20260504191527 85 121 1.7 5.2 0.00 0.00 0.00 17 1004.4
20260504190016 85 223 2.6 6.1 0.00 0.00 0.00 18 1004.6
20260504184508 86 349 0.0 1.7 0.00 0.00 0.00 18 1004.8
20260504183014 86 350 0.9 2.6 0.00 0.00 0.00 19 1005.1
20260504181518 86 256 0.9 2.6 0.00 0.00 0.00 19 1005.3
20260504180020 85 304 0.9 4.3 0.00 0.00 0.00 19 1005.6
20260504174519 84 338 0.0 7.8 0.00 0.00 0.00 23 1005.9
20260504173010 85 289 0.0 3.5 0.00 0.00 0.00 25 1006.0
20260504171515 84 256 0.9 4.3 0.00 0.00 0.00 26 1006.3
20260504081520 50 271 0.0 1.7 0.00 0.00 0.00 53 1006.9